OneWeb SL0320

operational
NORAD ID: 49190 Int'l Des: 2021-083 Owner: ONEWEBN Country: UK Constellation: oneweb
LEOCIRCULARPOLARONEWEB_TYPE

Über OneWeb SL0320

Beschreibung wird geladen...

Live-Position

3D-Globus wird geladen...

Nächste Überflüge

Höhenverlauf

Altitude vs Time

uPlot chart will show altitude changes over time

Zweizeiliger Elementsatz

1 49190U 21083E 25347.63176906 .00000026 00000-0 32331-4 0 9990
2 49190 87.9177 12.3220 0001750 93.6396 266.4936 13.18686780205521
Epoch: 13. Dez. 2025 • Age: 14 hours

Aktueller Status

Höhe 1196.8 km
Geschwindigkeit 7.25 km/s
Subsatellitenpunkt -16.84°S, 156.27°W
Startdatum 14. Sept. 2021
Alter 4.2 years
Typ internet

Technische Details

Klassifizierung Payload
Masse 148.00 kg
Trockenmasse 140.00 kg
Gesamtmasse 148.00 kg
Länge 1.30 m
Durchmesser 1.00 m
Spannweite 5.00 m
Form Trapezoid+2 pan
Hersteller ONEWUS
Bus-Typ ARROW
Phasenstatus In Orbit
Besitzer/Staat ONEWEBN/UK

Große Konstellationen

Loading constellations...